This demonstration page uses our WeatherBlox Daily Observations layout. Learn more.

39.29038, -76.61219

Hourly Observations for October 19, 2018

Temp ( °F °C ) Dew Point ( °F °C ) Humidity (%) Winds ( mph kmh ) Pressure ( in mb ) Visibility ( mi km ) Precip ( " mm )
12:54 am 00:54 undefined 48 8.9 37 2.8 66 66 undefined N/A 30.37 1029 N/A 0 0
1:54 am 01:54 undefined 47 8.3 36 2.2 66 66 undefined N/A 30.37 1029 N/A 0 0
2:54 am 02:54 undefined 46 7.8 36 2.2 68 68 undefined N/A 30.37 1029 N/A 0 0
3:54 am 03:54 undefined 45 7.2 36 2.2 71 71 undefined N/A 30.37 1028 N/A 0 0
4:54 am 04:54 undefined 45 7.2 35 1.7 68 68 undefined N/A 30.37 1028 N/A 0 0
5:54 am 05:54 undefined 45 7.2 35 1.7 68 68 undefined N/A 30.37 1028 N/A 0 0
6:54 am 06:54 undefined 45 7.2 35 1.7 68 68 undefined N/A 30.37 1028 N/A 0 0
7:54 am 07:54 undefined 44 6.7 36 2.2 73 73 undefined N/A 30.37 1028 N/A 0 0
8:54 am 08:54 undefined 48 8.9 36 2.2 63 63 undefined N/A 30.4 1030 N/A 0 0
9:54 am 09:54 undefined 53 11.7 37 2.8 55 55 undefined N/A 30.4 1030 N/A 0 0
10:54 am 10:54 undefined 58 14.4 39 3.9 50 50 undefined N/A 30.36 1028 N/A 0 0
11:54 am 11:54 undefined 61 16.1 41 5 48 48 undefined N/A 30.33 1027 N/A 0 0
12:54 pm 12:54 undefined 63 17.2 40 4.4 43 43 undefined N/A 30.27 1025 N/A 0 0
1:54 pm 13:54 undefined 65 18.3 40 4.4 40 40 undefined N/A 30.22 1023 N/A 0 0
2:54 pm 14:54 undefined 66 18.9 41 5 40 40 undefined N/A 30.16 1021 N/A 0 0
3:54 pm 15:54 undefined 64 17.8 41 5 43 43 undefined N/A 30.11 1020 N/A 0 0
4:54 pm 16:54 undefined 64 17.8 42 5.6 45 45 undefined N/A 30.08 1019 N/A 0 0
5:54 pm 17:54 undefined 63 17.2 42 5.6 47 47 undefined N/A 30.06 1018 N/A 0 0
6:54 pm 18:54 undefined 61 16.1 44 6.7 54 54 undefined N/A 30.05 1018 N/A 0 0
7:54 pm 19:54 undefined 59 15 44 6.7 58 58 undefined N/A 30.04 1017 N/A 0 0
8:54 pm 20:54 undefined 59 15 44 6.7 58 58 undefined N/A 30.02 1017 N/A 0 0
9:54 pm 21:54 undefined 58 14.4 45 7.2 62 62 undefined N/A 29.99 1016 N/A 0 0
10:54 pm 22:54 undefined 59 15 45 7.2 60 60 undefined N/A 29.97 1015 N/A 0 0
11:54 pm 23:54 undefined 59 15 48 8.9 67 67 undefined N/A 29.93 1013 N/A 0 0

Powered by AerisWeather